Powrót do katalogu

CZ-6A DEB

AktywnyPO
NORAD 61835·DEBRIS·🇨🇳 China

Wystrzelony Aug 6, 2024 z Taiyuan Satellite Launch Center

Loading…

Następne Przeloty (najbliższe 24 godziny)

TLE

ŚwieżeSource: Space-Track

Epoka: Sep 14, 2026, 11:23 UTC

1 61835U 24140ADB 26257.47433357  .00001887  00000-0  73756-3 0  9997
2 61835  88.9933 263.4165 0029177 256.6699 103.1242 14.28991434103698

Śledź CZ-6A DEB w czasie rzeczywistym z AllMySat

Download on the App Store